Flag for Germany Weather past 2 weeks in Berlin, Berlin, Germany

Now
48 °F

Cool.


Feels Like: 45 °F
Forecast: 37 / 44 °F
Wind: 8 mph from West

Location: Berlin-Tempelhof

Current Time: Mar 31, 2015 at 12:29:30 PM

Latest Report: Mar 31, 2015 at 12:00 PM


Visibility: N/A

Pressure: 29.06 "Hg

Humidity: 82%

Dew point: 43 °F

Location of BerlinLocation

Historic Weather in Berlin — Graph

°F

Berlin temperature yesterday

Maximum temperature yesterday: 50 °F (at 1:00 AM)
Minimum temperature yesterday: 41 °F (at 10:00 AM)
Average temperature yesterday: 44 °F

Past Weeks' High & Low Weather Summary

 TemperatureHumidityPressure
High62 °F (Mar 17, 4:00 PM)98% (Mar 31, 9:00 AM)30.48 "Hg (Mar 31, 9:00 AM)
Low29 °F (Mar 22, 6:00 AM)19% (Mar 18, 4:00 PM)29.06 "Hg (Mar 30, 12:00 AM)
Average45 °F66%29.99 "Hg
* Reported Mar 16 10:00 AM — Mar 31 11:00 AM, Berlin, Weather by CustomWeather, © 2015

Note: Actual official high and low records may vary slightly from our data, if they occured in-between our weather recording intervals... More about our weather records

Advertising

Berlin weather history for previous 24 hours

 ConditionsComfort  
Time TempWeatherWind HumidityBarometerVisibility
11:00 AM
Tue, Mar 31
41 °FQuite cool.7 mph94%29.06 "HgN/A
10:00 AM36 °FChilly.5 mph97%29.09 "HgN/A
9:00 AM33 °FChilly.6 mph98%29.12 "HgN/A
8:00 AM33 °FChilly.7 mph97%29.21 "HgN/A
7:00 AM35 °FChilly.7 mph93%29.29 "HgN/A
6:00 AM39 °FChilly.6 mph71%29.41 "HgN/A
5:00 AM38 °FChilly.5 mph76%29.47 "HgN/A
4:00 AM38 °FChilly.5 mph74%29.56 "HgN/A
3:00 AM38 °FChilly.5 mph74%29.62 "HgN/A
2:00 AM39 °FChilly.5 mph70%29.65 "HgN/A
1:00 AM40 °FChilly.8 mph68%29.66 "HgN/A
12:00 AM40 °FQuite cool.8 mph70%29.67 "HgN/A
11:00 PM
Mon, Mar 30
41 °FQuite cool.9 mph69%29.66 "HgN/A
10:00 PM42 °FQuite cool.10 mph65%29.64 "HgN/A
9:00 PM42 °FQuite cool.9 mph65%29.61 "HgN/A
8:00 PM43 °FQuite cool.12 mph66%29.57 "HgN/A
7:00 PM44 °FQuite cool.13 mph68%29.50 "HgN/A
6:00 PM44 °FQuite cool.17 mph73%29.47 "HgN/A
5:00 PM46 °FCool.14 mph66%29.41 "HgN/A
4:00 PM44 °FQuite cool.9 mph85%29.41 "HgN/A
3:00 PM45 °FQuite cool.12 mph77%29.35 "HgN/A
2:00 PM45 °FCool.13 mph68%29.32 "HgN/A
1:00 PM45 °FCool.12 mph67%29.29 "HgN/A
12:00 PM45 °FQuite cool.12 mph67%29.26 "HgN/A
Weather by CustomWeather, © 2015

See weather overviewHow to use our weather pages